Weather History for Greenwood, MS

Change the Weather History Date:

Tuesday, September 17, 2013

  Actual Average Record
Temperature  
Mean Temperature 79 °F 74 °F  
Max Temperature 94 °F 87 °F 98 °F (1953)
Min Temperature 64 °F 62 °F 44 °F (1999)
Degree Days  
Heating Degree Days 0 0  
Month to date heating degree days 0 0  
Since 1 July heating degree days 0 0  
Cooling Degree Days 14 10  
Month to date cooling degree days 250 205  
Year to date cooling degree days 1872 1947  
Growing Degree Days 28 (Base 50)    
Moisture  
Dew Point 61 °F    
Average Humidity 60    
Maximum Humidity 87    
Minimum Humidity 32    
Precipitation  
Precipitation 0.00 in 0.12 in 1.91 in (1950)
Month to date precipitation 0.70 2.01  
Year to date precipitation 38.95 36.08  
Sea Level Pressure  
Sea Level Pressure 30.07 in    
Wind  
Wind Speed 5 mph (ENE)    
Max Wind Speed 10 mph    
Max Gust Speed 15 mph    
Visibility 9 miles    
Events      
T = Trace of Precipitation, MM = Missing Value Source: NWS Daily Summary

Daily Weather History Graph

Daily Weather History Graph

Search for Another Location

Airport:

Trip Planner

Search our weather history database for the weather conditions in past years. The results will help you decide how hot, cold, wet, or windy it might be!

Date:

Astronomy

Sep. 17, 2013 Rise Set
Actual Time 6:45 AM CDT 7:03 PM CDT
Civil Twilight 6:20 AM CDT 7:28 PM CDT
Nautical Twilight 5:51 AM CDT 7:57 PM CDT
Astronomical Twilight 5:21 AM CDT 8:26 PM CDT
Moon 5:48 PM CDT (9/17) 4:44 AM CDT (9/17)
Length of Visible Light 13h 08m
Length of Day
12h 18m
Waxing Gibbous, 96% of the Moon is Illuminated
Sep 17
Waxing Gibbous
Sep 19
Full
Sep 26
Last Quarter
Oct 4
New
Oct 11
First Quarter

Hourly Weather History & Observations

Time (CDT) Temp. Heat Index Dew Point Humidity Pressure Visibility Wind Dir Wind Speed Gust Speed Precip Events Conditions
12:53 AM 69.1 °F - 62.1 °F 78% 30.09 in 10.0 mi NNE 3.5 mph - N/A   Clear
1:53 AM 66.9 °F - 61.0 °F 81% 30.09 in 10.0 mi Calm Calm - N/A   Clear
2:53 AM 66.9 °F - 60.1 °F 79% 30.09 in 10.0 mi NNE 4.6 mph - N/A   Clear
3:53 AM 68.0 °F - 60.1 °F 76% 30.09 in 10.0 mi ENE 3.5 mph - N/A   Clear
4:53 AM 68.0 °F - 60.1 °F 76% 30.08 in 10.0 mi East 5.8 mph - N/A   Clear
5:53 AM 66.9 °F - 60.1 °F 79% 30.08 in 10.0 mi East 6.9 mph - N/A   Clear
6:53 AM 64.0 °F - 60.1 °F 87% 30.09 in 10.0 mi Calm Calm - N/A   Clear
7:53 AM 68.0 °F - 61.0 °F 78% 30.11 in 10.0 mi NE 6.9 mph - N/A   Clear
8:53 AM 73.9 °F - 62.1 °F 66% 30.12 in 10.0 mi Calm Calm - N/A   Clear
9:53 AM 79.0 °F - 63.0 °F 58% 30.13 in 10.0 mi Variable 3.5 mph - N/A   Clear
10:53 AM 84.9 °F 86.1 °F 64.0 °F 49% 30.12 in 10.0 mi South 3.5 mph - N/A   Clear
11:53 AM 88.0 °F 88.4 °F 62.1 °F 42% 30.11 in 10.0 mi Calm Calm - N/A   Clear
12:28 PM 91.4 °F 91.4 °F 60.8 °F 36% 30.10 in 1.5 mi Variable 3.5 mph - N/A   Haze
12:36 PM 91.4 °F 91.4 °F 60.8 °F 36% 30.10 in 3.0 mi Variable 3.5 mph - N/A   Haze
12:53 PM 91.0 °F 90.2 °F 59.0 °F 34% 30.09 in 10.0 mi North 4.6 mph - N/A   Clear
1:07 PM 91.4 °F 90.7 °F 59.0 °F 34% 30.09 in 2.5 mi Variable 6.9 mph - N/A   Haze
1:16 PM 91.4 °F 91.4 °F 60.8 °F 36% 30.08 in 10.0 mi East 8.1 mph - N/A   Clear
1:53 PM 93.0 °F 92.7 °F 60.1 °F 33% 30.06 in 10.0 mi Variable 4.6 mph - N/A   Clear
2:53 PM 93.9 °F 93.6 °F 60.1 °F 32% 30.03 in 10.0 mi Variable 3.5 mph - N/A   Partly Cloudy
3:53 PM 93.9 °F 93.2 °F 59.0 °F 31% 30.01 in 10.0 mi North 5.8 mph - N/A   Clear
4:53 PM 93.0 °F 92.3 °F 59.0 °F 32% 30.00 in 10.0 mi NE 9.2 mph - N/A   Clear
5:53 PM 91.0 °F 90.5 °F 60.1 °F 35% 29.99 in 10.0 mi NNE 8.1 mph - N/A   Clear
6:53 PM 86.0 °F 86.3 °F 62.1 °F 44% 30.00 in 10.0 mi NE 5.8 mph - N/A   Clear
7:53 PM 75.9 °F - 63.0 °F 64% 30.01 in 10.0 mi NE 4.6 mph - N/A   Clear
8:53 PM 75.9 °F - 63.0 °F 64% 30.03 in 10.0 mi East 4.6 mph - N/A   Clear
9:53 PM 73.9 °F - 63.0 °F 68% 30.04 in 10.0 mi East 3.5 mph - N/A   Clear
10:53 PM 78.1 °F - 61.0 °F 56% 30.04 in 10.0 mi East 8.1 mph - N/A   Clear
11:53 PM 75.9 °F - 61.0 °F 60% 30.04 in 10.0 mi East 6.9 mph - N/A   Clear